Miscellaneous Local Product
Issued by NWS Hastings, NE

Home | Current Version | Previous Version | Graphics & Text | Print | Product List | Glossary On
Versions: 1 2 3 4 5 6 7 8 9 10 11 12 13 14 15 16 17 18 19 20 21 22 23 24 25 26 27 28 29 30 31 32 33 34 35 36 37 38 39 40 41 42 43 44 45 46 47 48 49 50
000
AXUS43 KGID 220502
MISGRI

GID CWA HOURLY WEATHER ROUNDUP
NATIONAL WEATHER SERVICE HASTINGS NE
1200 AM CDT FRI MAY 22 2015

NOTE: "FAIR" INDICATES FEW OR NO CLOUDS BELOW 12,000 FEET WITH NO
SIGNIFICANT WEATHER AND/OR OBSTRUCTIONS TO VISIBILITY.

...SOUTH CENTRAL NEBRASKA...

CITY           SKY/WX    TMP DP  RH WIND       PRES   REMARKS
GRAND ISLAND   MOCLDY    50  42  74 S6        30.23S
HASTINGS       MOCLDY    53  40  61 S5        30.23R
KEARNEY        MOCLDY    52  39  62 S5        30.23S
ORD            CLEAR     44  37  76 SW3       30.20S
YORK           PTCLDY    55  45  67 CALM      30.23S
AURORA         PTCLDY    51  41  69 S3        30.22S
LEXINGTON      MOCLDY    49  42  76 S6        30.22S
HOLDREGE       MOCLDY    50  40  68 S5        30.23R
HEBRON         MOCLDY    51  43  72 CALM      30.23S

...NEBRASKA PANHANDLE...

CITY           SKY/WX    TMP DP  RH WIND       PRES   REMARKS
CHADRON        CLOUDY    55  44  66 SE14      30.14S
ALLIANCE       CLOUDY    52  44  74 SE12      30.15F
SCOTTSBLUFF    CLOUDY    52  44  74 SE13      30.13F
SIDNEY         CLOUDY    50  44  80 S9        30.17F

...WESTERN AND NORTH CENTRAL NEBRASKA...

CITY           SKY/WX    TMP DP  RH WIND       PRES   REMARKS
VALENTINE      CLEAR     50  36  58 S9        30.18S
AINSWORTH      CLEAR     45  38  77 S7        30.20R
ONEILL         CLEAR     54  38  56 SW3       30.20F
BROKEN BOW     PTCLDY    44  41  89 CALM      30.21R
IMPERIAL       CLOUDY    53  45  74 S7        30.18F
NORTH PLATTE   CLOUDY    54  41  61 SE7       30.21S
MCCOOK         MOCLDY    49  43  80 SE6       30.20F

...EASTERN NEBRASKA...

CITY           SKY/WX    TMP DP  RH WIND       PRES   REMARKS
NORFOLK        CLEAR     53  38  56 SW6       30.18F
SO SIOUX CITY  CLEAR     55  37  50 NW6       30.16R
TEKAMAH        CLEAR     56  41  57 W9        30.16S
COLUMBUS       CLEAR     54  37  54 W6        30.23S
ALBION         CLEAR     51  38  60 CALM      30.21S
OMAHA EPPLEY   PTCLDY    62  40  44 SW6       30.18R
OFFUTT AFB     CLEAR     58  42  55 W5        30.18R
MILLARD        CLEAR     59  43  54 W5        30.18S
LINCOLN        PTCLDY    56  42  59 W3        30.22R
NEBRASKA CITY  CLEAR     51  39  62 SW9       30.20R
BEATRICE       MOCLDY    53  44  72 SW5       30.23S
FALLS CITY     PTCLDY    55  44  66 SW7       30.20R

...NORTHERN KANSAS...

CITY           SKY/WX    TMP DP  RH WIND       PRES   REMARKS
GOODLAND       CLOUDY    50  45  83 SE8       30.20S
HILL CITY      CLOUDY    48  44  86 CALM      30.22S
NORTON         CLEAR     50  41  71 CALM      30.21F
PHILLIPSBURG   CLEAR     54  45  71 CALM      30.23S
SMITH CENTER   CLEAR     50  45  81 E7        30.23S
HAYS           MOCLDY    48  39  71 E9        30.21F
RUSSELL        MOCLDY    50  45  83 SE6       30.21F
CONCORDIA      MOCLDY    54  42  64 SW7       30.23F
SALINA         PTCLDY    53  47  79 SE3       30.23F
TOPEKA         PTCLDY    55  48  77 CALM      30.24R



USA.gov is the U.S. government's official web portal to all federal, state and local government web resources and services.